Lapse_Rate
6.6 6.5 6.6 6.7 6.8 6.8 6.9 7.0 7.0 7.0 7.0 6.9 6.9 6.9 6.8 6.6 6.6 6.6 6.5 6.3 6.1 5.9 5.8 5.6 5.6 5.6 5.6 5.5 5.4 5.3 5.3 5.2 5.1 5.3 5.5 5.5 5.5 5.4 5.2 5.0 4.8 4.6 4.4
6.5 6.5 6.5 6.6 6.6 6.7 6.9 6.9 6.9 7.0 6.9 6.7 6.7 6.7 6.6 6.5 6.5 6.5 6.4 6.2 6.0 5.7 5.6 5.5 5.5 5.5 5.4 5.4 5.4 5.4 5.5 5.6 5.4 5.4 5.5 5.6 5.9 5.5 5.1 4.7 4.4 4.4 4.2
6.6 6.4 6.5 6.5 6.6 6.7 6.7 6.7 6.6 6.4 6.4 6.4 6.4 6.4 6.3 6.3 6.2 6.2 6.0 5.8 5.7 5.6 5.5 5.4 5.4 5.4 5.4 5.5 5.6 5.6 5.5 5.6 5.4 5.1 4.6 4.7 4.8 4.9 5.1 4.8 4.4 4.2 4.1
6.6 6.5 6.4 6.4 6.4 6.5 6.4 6.3 6.2 6.2 6.1 6.0 6.0 6.0 6.1 6.1 6.0 5.9 5.8 5.6 5.5 5.3 5.3 5.4 5.4 5.4 5.5 5.6 5.6 5.4 5.3 5.1 4.9 4.8 4.4 3.9 3.5 3.4 3.8 4.1 4.0 3.8 3.7
6.7 6.6 6.4 6.3 6.2 6.1 6.0 6.1 6.0 6.0 5.9 6.0 5.9 5.9 6.0 5.9 5.8 5.7 5.5 5.5 5.5 5.5 5.4 5.4 5.4 5.6 5.6 5.6 5.6 5.4 5.0 4.7 4.5 4.3 4.0 3.9 3.9 3.7 3.4 3.4 3.4 3.5 3.5
6.7 6.6 6.3 6.1 6.0 5.9 5.8 5.8 5.8 5.8 5.8 5.8 5.8 5.8 5.8 5.6 5.6 5.6 5.6 5.5 5.6 5.5 5.4 5.4 5.5 5.6 5.6 5.5 5.3 5.0 4.7 4.5 4.3 4.0 3.7 3.5 3.5 3.5 3.5 3.5 3.4 3.3 3.3
6.7 6.6 6.1 5.9 5.7 5.6 5.6 5.7 5.7 5.7 5.7 5.7 5.6 5.6 5.7 5.8 5.7 5.6 5.5 5.5 5.4 5.3 5.5 5.6 5.5 5.5 5.4 5.3 5.0 4.7 4.4 4.1 4.0 3.8 3.8 3.7 3.8 3.6 3.6 3.4 3.3 3.3 3.5
6.5 6.2 6.1 6.0 5.7 5.5 5.5 5.6 5.7 5.7 5.7 5.7 5.6 5.7 5.8 5.7 5.7 5.6 5.4 5.3 5.2 5.3 5.5 5.5 5.5 5.4 5.2 4.9 4.5 4.2 4.1 4.1 4.0 3.9 3.9 3.8 3.8 3.8 3.8 3.7 3.6 3.5 3.5
6.2 6.0 6.0 5.9 5.7 5.6 5.6 5.7 5.7 5.7 5.6 5.7 5.8 5.8 5.9 5.9 5.7 5.4 5.3 5.2 5.2 5.2 5.3 5.3 5.2 5.0 4.7 4.4 4.3 4.2 4.0 3.9 3.8 3.8 3.8 4.0 4.0 3.9 4.0 4.0 3.7 3.4 3.5
6.2 6.2 6.1 5.9 5.7 5.6 5.6 5.6 5.7 5.6 5.7 5.8 5.9 6.0 5.9 5.7 5.5 5.3 5.2 5.1 5.1 5.2 5.2 5.1 4.9 4.7 4.4 4.2 4.1 4.0 4.0 3.9 3.9 4.1 4.3 4.3 4.2 4.1 4.0 3.9 3.7 3.5 3.2
6.4 6.4 6.1 6.0 5.8 5.7 5.6 5.8 5.7 5.7 5.9 6.0 6.1 6.0 5.7 5.5 5.4 5.2 5.2 5.1 5.1 5.2 5.1 4.9 4.7 4.4 4.2 4.2 4.1 4.2 4.2 4.3 4.5 4.4 4.2 4.1 3.9 3.8 3.9 3.9 3.9 3.8 3.5
6.4 6.3 6.1 6.0 5.9 5.7 5.8 5.8 5.8 6.0 6.0 6.1 6.0 5.8 5.7 5.6 5.4 5.3 5.2 5.2 5.1 5.0 4.9 4.7 4.4 4.3 4.3 4.3 4.3 4.4 4.6 4.5 4.3 4.1 4.0 3.9 3.8 4.0 4.1 4.2 4.2 4.0 3.9
6.4 6.2 6.2 6.1 5.9 5.9 6.0 6.0 6.1 6.2 6.1 6.0 5.9 5.8 5.7 5.6 5.4 5.3 5.2 5.1 4.9 4.8 4.7 4.6 4.5 4.5 4.5 4.5 4.6 4.6 4.4 4.1 3.9 3.8 3.7 3.7 3.9 4.2 4.4 4.5 4.4 4.2 4.4
6.7 6.4 6.5 6.3 6.1 6.2 6.3 6.3 6.3 6.2 6.0 6.0 5.9 5.8 5.7 5.4 5.2 5.1 5.0 4.9 4.8 4.8 4.7 4.6 4.5 4.5 4.5 4.6 4.4 4.2 4.0 4.0 3.8 3.8 3.7 4.0 4.4 4.7 4.7 4.4 4.3 4.1 3.8
6.7 6.6 6.7 6.7 6.6 6.4 6.4 6.4 6.3 6.1 6.1 6.0 5.9 5.8 5.5 5.2 5.0 4.9 4.9 4.9 4.8 4.7 4.6 4.4 4.4 4.6 4.6 4.4 4.1 3.9 3.7 3.8 3.8 4.0 4.3 4.8 5.1 5.0 4.8 4.4 4.2 4.1 4.0
6.5 6.7 6.8 6.6 6.4 6.3 6.1 6.3 6.2 6.1 6.1 6.0 5.9 5.6 5.3 5.1 4.9 4.9 4.9 4.8 4.7 4.5 4.5 4.6 4.6 4.5 4.2 3.9 3.8 3.7 3.7 3.8 4.1 4.5 5.0 5.3 5.3 5.4 5.2 4.8 4.5 3.8 3.1
6.6 6.7 6.6 6.5 6.5 6.4 6.4 6.5 6.3 6.3 6.1 6.0 5.8 5.4 5.1 5.0 4.9 5.0 4.8 4.7 4.5 4.6 4.6 4.5 4.3 4.0 4.0 4.0 4.0 3.8 3.9 4.3 4.7 5.0 5.4 5.6 5.7 5.3 5.0 4.8 4.3 3.7 3.3
6.7 6.6 6.5 6.4 6.4 6.5 6.5 6.4 6.2 6.1 6.0 5.7 5.4 5.3 5.1 5.0 4.9 4.8 4.6 4.5 4.5 4.6 4.4 4.2 4.0 4.0 4.1 4.1 4.0 3.9 4.3 4.9 5.4 5.6 5.8 5.7 5.4 5.0 4.5 3.8 3.3 3.2 3.8
6.5 6.3 6.4 6.4 6.4 6.5 6.4 6.3 6.2 6.0 5.7 5.5 5.4 5.2 5.0 4.9 4.8 4.6 4.5 4.6 4.5 4.2 4.1 4.0 4.1 4.1 4.2 4.1 3.9 4.2 5.0 5.4 5.6 5.8 5.7 5.2 4.8 4.4 3.4 3.1 3.2 3.8 4.7
6.3 6.3 6.4 6.4 6.3 6.3 6.3 6.2 6.0 5.8 5.6 5.5 5.2 5.0 4.9 4.8 4.7 4.5 4.5 4.2 4.0 3.9 3.9 4.0 4.2 4.3 4.3 4.3 4.3 4.6 4.7 5.1 5.5 5.8 5.3 4.8 4.4 4.1 3.7 3.8 3.8 4.1 4.2
6.1 6.2 6.1 6.2 6.1 6.3 6.2 6.1 5.8 5.6 5.4 5.2 5.0 4.9 4.8 4.6 4.3 4.2 4.0 3.9 3.9 3.8 4.0 4.3 4.3 4.5 4.4 4.7 4.9 5.2 5.3 5.3 5.2 4.9 4.8 4.7 4.4 4.2 4.2 4.1 4.0 3.9 3.6
5.8 5.9 5.9 6.0 6.3 6.3 6.0 6.0 5.7 5.4 5.2 5.0 4.9 4.7 4.3 4.2 4.2 3.9 3.8 3.7 3.8 4.1 4.3 4.2 4.3 4.4 4.6 5.0 5.5 5.6 5.5 5.0 4.5 4.5 4.6 4.7 4.5 4.5 4.4 4.1 3.9 3.8 3.6
5.7 5.8 6.1 6.2 6.0 6.0 6.0 5.7 5.4 5.3 5.1 4.9 4.6 4.2 4.2 4.1 3.9 3.7 3.7 3.8 4.0 4.2 4.2 4.1 4.3 4.7 5.2 5.7 5.6 5.5 5.2 4.9 4.5 4.3 4.9 4.9 4.5 4.3 4.2 4.1 3.8 3.6 3.9
5.8 5.9 6.0 6.1 6.1 6.0 5.7 5.6 5.4 5.1 4.8 4.4 4.2 4.2 4.1 3.9 3.7 3.6 3.7 4.0 4.0 4.1 4.2 4.2 4.6 5.2 5.6 5.7 5.5 5.1 4.7 4.4 4.4 4.9 4.8 4.3 4.3 4.0 3.9 4.0 4.0 4.1 4.0
6.0 6.1 6.1 6.0 5.8 5.8 5.6 5.4 5.0 4.7 4.4 4.2 4.3 4.0 3.7 3.6 3.6 3.7 3.8 4.0 4.0 3.9 4.0 4.2 4.7 5.2 5.6 5.3 4.8 4.5 4.5 4.5 4.6 4.6 4.3 4.2 4.1 4.4 4.4 4.3 4.1 4.2 4.2
6.0 6.0 6.0 5.8 5.8 5.7 5.3 4.9 4.6 4.3 4.2 4.1 3.8 3.6 3.5 3.4 3.5 3.8 4.0 4.1 4.2 4.2 4.3 4.8 5.2 5.3 5.0 4.9 4.6 4.9 5.1 4.9 4.6 4.5 4.0 3.9 4.1 4.1 4.1 4.1 4.2 4.3 4.3
Wind_Speed
10 8 5 6 6 5 7 7 7 7 5 4 5 7 7 5 5 4 12 12 13 13 10 5 6 5 5 5 6 4 6 4 5 4 7 7 7 6 6 8 9 7 11
9 8 6 7 5 6 7 7 8 8 8 5 6 6 6 5 5 4 8 13 13 14 10 6 5 6 4 6 6 5 4 3 5 3 5 4 5 5 14 11 7 12 6
13 9 8 8 7 8 8 8 9 9 9 10 9 7 6 4 4 4 4 6 13 12 10 8 5 6 5 4 5 5 6 4 4 7 2 4 3 12 4 9 7 11 12
13 9 9 8 7 7 8 8 8 8 7 8 6 7 5 5 3 3 4 5 10 10 11 9 7 6 4 5 4 5 4 4 4 4 3 4 5 5 8 2 12 11 11
14 12 10 8 8 7 7 8 8 9 9 9 8 6 6 4 3 4 6 6 6 10 9 8 6 5 4 5 6 5 6 4 2 2 3 6 5 4 6 13 7 10 8
14 12 10 9 7 7 7 8 8 8 9 9 9 9 8 7 5 6 5 4 4 4 6 8 6 5 4 4 4 4 6 5 4 3 3 4 5 8 7 12 15 14 11
13 12 10 8 8 8 8 7 8 9 8 9 9 9 8 8 8 6 4 5 4 3 5 5 5 4 4 5 5 4 5 5 5 5 4 4 6 6 8 9 13 13 13
12 11 9 9 9 8 8 8 8 9 8 8 9 8 8 5 5 6 4 4 3 2 4 5 5 6 6 5 5 4 4 6 5 7 6 5 6 6 7 9 10 16 14
14 12 10 10 8 8 8 9 9 8 8 8 7 7 7 7 6 7 5 3 4 4 6 6 6 6 6 6 7 4 6 5 5 6 6 6 7 7 6 7 8 10 16
14 11 10 10 7 8 8 9 8 8 8 8 7 6 7 7 6 6 5 5 5 5 5 6 6 6 6 6 6 5 6 7 5 7 9 10 8 8 8 6 7 7 10
14 13 11 10 9 8 8 8 8 8 7 7 7 7 6 7 6 5 4 5 5 6 5 6 6 6 6 6 6 6 8 9 6 9 12 13 12 9 8 9 7 9 9
12 12 11 11 9 8 8 8 7 7 7 7 7 7 6 6 5 4 5 5 5 5 6 6 6 6 6 6 7 7 8 7 11 13 14 15 11 14 12 7 12 9 10
13 11 12 11 9 8 8 8 7 7 7 7 7 7 6 5 5 5 5 5 5 5 6 6 6 6 7 7 6 9 6 9 11 13 14 15 15 14 10 10 10 12 11
14 11 11 10 8 8 8 8 7 7 6 6 7 6 5 4 3 3 4 5 5 6 6 6 6 7 7 7 9 6 8 8 11 13 15 15 15 13 14 13 14 12 11
12 11 11 9 8 8 8 8 8 7 6 7 6 5 3 3 3 4 4 5 6 6 6 6 7 7 7 8 10 11 8 9 11 14 15 14 19 27 25 13 13 15 14
13 12 11 10 10 9 8 9 7 7 7 6 6 4 3 3 3 4 5 6 6 6 6 7 7 7 7 19 23 18 10 8 12 14 14 14 21 18 27 28 33 26 17
11 13 10 10 10 9 10 9 8 6 6 6 5 3 2 3 3 4 5 6 6 6 6 7 6 7 7 21 23 23 10 9 11 13 14 14 12 19 17 24 28 22 27
10 9 9 10 10 10 9 9 8 7 6 5 4 3 2 3 4 5 6 6 5 6 6 6 7 7 8 22 22 23 9 10 10 12 14 14 16 17 21 20 17 16 14
9 9 11 11 11 11 10 10 7 6 6 5 4 3 2 3 5 6 6 6 5 6 5 6 8 7 8 18 23 19 10 11 12 12 12 15 18 25 33 21 18 18 15
12 13 13 12 12 10 10 8 6 6 5 5 3 1 2 3 5 5 6 4 5 6 7 9 7 11 9 17 22 19 10 12 11 12 13 22 22 32 33 21 19 16 16
14 13 11 10 9 8 8 7 6 6 5 3 1 2 3 4 4 5 4 5 6 6 6 8 7 7 9 11 23 25 13 11 12 10 12 12 29 32 33 32 14 19 22
12 10 11 10 7 7 7 7 7 6 4 2 1 3 3 3 4 5 4 6 6 6 6 7 8 6 8 17 21 25 25 25 13 14 12 15 30 33 30 23 30 30 26
9 10 10 9 6 6 6 7 5 5 3 0 2 4 5 5 4 5 6 5 5 5 6 7 8 9 8 8 21 25 26 25 16 12 22 30 29 28 20 26 29 26 11
8 9 9 8 6 5 7 7 6 4 2 3 4 4 4 6 5 4 4 4 4 5 6 8 8 8 9 9 10 11 11 18 16 19 12 18 22 22 21 17 15 11 10
6 8 7 7 7 6 6 5 5 4 4 4 4 4 4 5 5 5 4 4 4 6 9 8 8 9 10 10 22 21 15 14 18 21 10 11 11 11 11 11 12 11 11
6 6 7 7 7 7 6 5 4 4 3 3 3 4 4 4 4 5 6 9 15 19 20 21 16 10 20 26 28 28 30 29 29 12 11 11 11 11 12 12 13 12 15
Wind_Direction
113 120 137 123 102 88 105 124 115 108 99 93 94 90 88 74 61 57 66 60 52 58 40 32 36 23 20 30 13 355 353 336 342 330 324 296 298 322 347 333 322 317 331
121 128 136 108 111 105 87 78 73 71 71 75 85 93 95 87 88 71 68 62 55 47 54 35 29 29 17 25 15 9 341 323 354 334 314 332 308 6 337 304 318 312 327
132 133 112 96 85 82 82 84 77 77 83 88 94 98 99 84 80 77 64 65 59 48 49 45 33 24 22 20 4 10 3 329 339 5 328 338 309 319 285 314 297 330 321
127 129 121 103 85 81 77 81 94 107 111 116 119 111 102 105 102 99 108 93 84 55 37 43 34 31 28 17 360 3 350 2 341 343 9 304 289 306 316 296 324 297 329
130 128 123 118 106 85 84 78 75 70 74 81 86 93 97 95 94 83 78 80 76 70 38 31 29 33 27 5 355 352 357 337 339 319 316 317 304 310 306 306 307 296 295
125 117 112 108 104 91 85 84 83 75 71 74 73 82 89 85 70 55 54 47 66 63 36 16 14 24 13 353 342 356 338 310 319 295 293 290 300 308 301 299 305 302 305
129 127 131 132 126 118 114 107 96 88 79 78 75 75 77 77 67 61 55 48 36 32 17 17 2 359 353 347 343 340 316 314 307 307 295 284 297 296 294 299 299 299 304
135 142 144 136 128 134 119 106 99 94 89 88 82 74 73 76 71 68 59 47 47 16 21 9 1 351 345 339 339 329 330 316 318 310 297 296 293 290 298 295 306 306 304
145 155 141 133 137 128 121 114 106 102 98 93 89 83 79 77 72 60 55 33 26 17 10 3 354 342 340 344 340 330 314 319 303 292 296 294 296 291 287 299 293 301 306
151 148 141 137 133 126 120 116 112 111 102 97 95 88 84 76 70 63 49 27 10 20 1 354 347 336 336 335 335 321 313 311 301 314 310 301 300 299 297 289 298 298 298
157 147 141 135 125 119 123 113 113 114 110 103 92 86 74 66 65 56 36 21 11 2 354 343 337 331 329 328 329 321 312 315 313 322 311 309 308 301 307 301 298 298 291
148 144 138 130 130 135 127 128 126 116 112 107 99 89 74 64 60 42 26 13 6 352 339 340 331 325 323 324 318 313 310 317 330 320 314 308 312 305 302 298 298 294 293
140 144 138 139 143 142 136 130 122 121 116 107 104 87 74 58 45 32 14 360 348 336 330 330 323 319 312 310 309 307 325 327 320 315 311 308 306 301 301 297 296 293 291
151 149 142 144 145 140 133 127 120 114 106 97 92 89 73 64 36 22 4 342 335 326 322 313 309 304 303 307 304 319 320 314 317 309 306 302 297 301 304 298 295 299 298
155 150 145 149 141 133 131 122 116 117 114 103 98 91 74 55 27 4 342 329 325 313 304 307 309 302 307 310 321 318 314 317 318 308 301 299 304 309 306 307 312 308 303
153 143 148 145 140 136 132 121 114 112 112 111 104 94 65 27 353 344 330 312 301 306 313 310 301 307 317 319 315 317 317 316 307 303 306 305 309 305 317 314 306 302 310
151 151 150 140 134 133 125 121 119 118 102 100 101 90 49 348 348 325 310 306 317 319 311 309 313 310 307 313 315 318 312 302 303 302 308 307 309 315 306 301 304 305 296
142 133 124 118 118 115 112 113 106 106 119 123 120 95 39 348 324 315 321 325 313 311 310 308 305 300 301 313 317 316 312 299 295 299 301 303 310 307 308 308 307 304 297
107 106 109 109 107 105 106 106 110 129 129 115 95 66 18 327 320 323 322 316 315 311 298 303 302 299 298 315 318 319 313 307 304 305 306 310 307 308 311 317 309 308 308
98 105 105 106 106 109 113 120 136 143 113 99 96 17 332 312 313 317 314 298 308 303 309 304 298 304 315 312 320 328 320 313 313 314 312 308 313 313 318 315 315 315 310
102 105 107 109 113 117 122 129 132 106 115 104 69 327 318 317 314 313 304 301 309 298 297 305 309 313 314 323 331 326 322 320 321 318 314 311 311 316 320 322 329 312 317
116 113 110 113 112 123 114 121 113 124 117 117 299 296 322 325 313 314 311 306 302 300 306 318 320 325 328 328 324 324 324 323 325 317 313 307 317 324 327 331 318 323 327
117 115 116 108 98 107 134 120 126 115 111 66 335 349 332 310 316 317 304 306 302 308 317 316 318 319 318 316 314 316 318 327 322 315 308 319 324 329 327 319 324 324 316
119 122 120 119 122 109 87 114 122 126 103 25 2 325 314 327 335 312 297 305 308 308 309 311 308 308 312 311 309 313 321 324 321 314 317 327 328 322 319 319 317 315 315
120 126 131 136 138 132 117 116 116 89 52 15 319 320 341 335 309 297 301 305 294 311 318 317 311 312 313 313 321 329 327 326 323 332 333 327 323 321 321 319 319 319 317
128 124 134 124 134 131 132 129 108 83 41 323 329 337 333 319 304 312 312 310 318 321 320 318 317 317 318 321 327 327 328 329 335 337 326 321 321 321 321 321 319 319 320